Back to catalog

STARLINK-35394

AliveCommunicationsVLEO
NORAD 66023·PAYLOAD·🇺🇸 United States

Launched Oct 16, 2025 from Cape Canaveral Space Force Station

Loading…

Next Passes (next 24 hours)

TLE

FreshSource: CelesTrak SupGP

Epoch: Sep 14, 2026, 14:38 UTC

1 66023C 25232U   26257.61020833  .00035899  00000+0  10611-2 0  2577
2 66023  53.1570 304.9799 0001422  80.9758 151.5301 15.34357807    17

Track STARLINK-35394 in real time with AllMySat

Download on the App Store